Theta_e
344 345 345 346 344 343 342 342 341 340 342 341 338 337 335 335 334 334 334 334 333 333 332 332 334 335 333 333 334 334 337 338 339 338 339 339 341 341 340 339 340 340 340 336 336 336 336 334 333 333 332 331 330 329 329 328 328 328 330 330 333 335 336 334 334 333 331 330 329 329 327 327 326 326 325 325 325 325 324 324 324 324 323 323 323
344 346 344 344 342 341 342 343 343 343 342 337 335 337 336 333 334 332 329 331 330 331 331 332 331 332 332 332 333 334 337 336 337 337 338 339 341 343 338 339 339 339 339 340 337 336 336 334 334 332 332 330 331 330 329 328 328 327 328 330 333 333 334 335 334 332 331 329 328 327 327 326 325 325 325 325 325 324 324 324 323 323 323 322 322
345 346 345 344 343 342 343 344 345 345 343 337 338 336 336 334 332 329 327 329 330 330 331 331 332 330 332 330 331 334 335 337 336 336 336 337 339 340 339 339 339 340 340 339 339 338 336 336 335 334 334 332 331 331 330 328 329 327 329 329 333 332 333 335 334 333 332 330 329 328 327 327 326 325 325 324 324 324 324 324 323 323 322 322 321
344 343 345 344 344 344 344 342 341 345 343 338 336 337 337 333 334 334 330 328 331 333 334 332 331 330 331 329 330 332 333 335 335 336 335 337 337 339 340 339 340 340 339 339 339 339 338 337 336 336 334 333 332 331 330 329 329 329 329 330 332 332 332 334 334 333 332 331 330 328 327 326 326 325 324 323 322 322 323 323 323 322 322 322 321
339 344 343 342 342 342 341 341 341 337 341 340 337 337 337 333 330 331 334 332 330 332 332 333 333 333 333 331 332 330 330 333 335 335 334 334 335 337 339 339 342 339 338 339 339 339 339 339 337 337 335 335 334 332 331 331 330 329 329 330 331 333 332 332 335 333 332 331 331 328 328 327 325 324 324 324 323 323 323 323 322 322 322 322 321
339 340 343 341 341 341 339 338 340 342 343 341 336 335 334 331 328 328 329 331 330 331 331 330 331 333 333 333 334 334 332 331 333 333 334 334 335 337 338 338 338 341 340 340 339 338 338 339 339 338 337 335 335 334 333 333 331 329 329 329 331 331 331 332 333 334 333 331 331 329 328 327 326 326 323 322 322 322 322 322 322 322 321 321 320
340 341 342 341 340 341 339 340 341 342 342 341 337 335 335 335 333 330 331 330 329 331 331 332 333 332 334 335 332 331 333 332 332 332 332 335 336 336 337 338 337 339 337 341 340 338 337 338 339 339 339 336 336 335 335 334 332 331 329 329 328 330 330 330 332 334 334 332 331 330 329 328 327 325 323 322 322 322 322 321 321 321 321 321 320
339 341 343 341 339 339 341 342 340 341 341 341 341 336 334 337 337 334 329 329 330 331 332 332 334 334 337 336 335 334 332 333 332 331 331 333 334 336 336 337 338 337 338 338 341 340 337 337 338 338 339 340 337 336 336 334 333 332 332 331 331 330 329 330 331 333 334 333 332 331 330 328 327 325 324 323 322 322 321 321 321 320 320 320 320
342 341 341 342 339 338 342 340 338 338 338 340 341 341 340 335 338 335 334 332 330 329 332 334 335 336 336 336 335 334 332 332 332 332 331 333 333 333 334 334 336 336 338 338 340 340 337 337 338 337 337 338 339 337 336 336 335 334 333 331 332 331 332 331 330 332 335 334 333 332 330 329 327 326 324 324 323 322 322 321 320 320 319 320 319
342 341 340 340 340 339 334 335 334 338 338 338 337 338 340 341 338 340 337 337 334 332 334 336 333 334 336 335 336 337 332 332 333 332 331 330 332 331 332 334 334 335 336 338 338 340 341 338 337 336 336 335 335 339 338 337 336 335 335 334 333 332 333 333 331 330 332 336 334 332 331 329 327 327 325 324 324 323 323 322 321 320 319 319 318
337 340 342 339 338 338 336 333 338 338 339 337 337 336 337 338 337 338 339 340 339 337 337 335 333 331 331 335 335 334 338 337 334 331 331 331 330 331 331 334 335 334 336 336 337 338 340 341 340 340 339 334 336 338 338 338 337 337 335 335 335 334 334 335 333 331 331 334 335 334 332 329 328 327 326 325 324 323 323 322 321 321 320 319 319
334 335 336 337 338 338 338 338 338 336 336 337 337 336 336 334 335 335 336 336 338 338 338 335 333 332 331 332 331 333 333 334 336 333 334 333 333 333 333 333 334 335 335 336 336 336 337 338 337 337 339 337 334 336 338 337 337 338 337 336 335 335 335 335 335 333 330 330 335 334 333 330 328 327 327 326 324 324 324 322 321 322 320 320 319
331 331 332 333 333 334 336 335 336 336 336 337 338 338 337 336 334 335 334 333 334 337 337 335 330 330 333 332 333 336 334 336 336 336 333 333 333 333 333 334 334 334 336 336 334 335 335 336 337 338 338 339 339 335 334 335 336 338 338 338 338 336 336 337 337 336 334 331 334 336 334 331 329 328 327 327 326 324 324 322 322 321 321 320 319
330 331 330 330 331 331 332 332 333 335 336 337 338 336 336 336 334 333 334 331 331 334 335 333 329 326 327 327 329 333 331 332 333 334 334 334 335 334 335 334 332 334 336 336 336 334 334 335 336 336 336 338 339 341 340 338 337 336 338 338 339 339 338 338 338 338 336 334 332 336 335 332 330 329 328 327 326 325 324 323 322 321 320 320 320
329 329 329 328 330 330 331 331 333 334 336 337 336 335 337 335 335 334 332 332 332 334 337 335 328 332 331 326 324 322 327 328 332 331 331 331 334 335 334 334 333 335 337 337 336 336 333 334 334 335 337 337 337 338 338 337 338 335 336 338 339 339 339 338 339 339 338 335 334 334 336 333 331 329 329 328 327 325 325 323 322 322 321 320 320
327 327 328 327 329 329 330 330 331 334 336 333 333 332 334 333 335 333 332 329 326 332 334 334 332 330 323 324 325 324 319 323 326 329 333 333 334 335 334 333 334 336 338 337 337 337 336 335 334 336 337 338 337 336 336 337 335 334 333 333 335 338 340 339 338 339 338 336 336 334 336 334 332 331 330 329 328 326 325 323 323 322 321 320 320
327 327 325 326 326 328 328 330 330 330 330 329 330 331 332 334 332 331 331 330 326 329 330 334 333 335 327 323 322 320 320 324 326 327 332 330 332 334 333 334 334 335 336 337 338 339 337 335 336 336 337 337 338 337 337 337 337 339 340 334 334 335 337 339 339 339 338 337 336 336 337 335 333 332 330 329 328 327 326 324 323 322 322 321 321
326 326 326 326 326 326 328 327 329 328 328 327 327 326 326 327 330 332 331 331 327 326 328 333 333 332 333 330 328 320 322 325 323 319 331 332 331 330 332 335 336 336 337 337 337 337 338 338 337 338 338 338 337 336 336 337 337 337 339 341 330 333 333 335 338 339 340 338 337 336 337 337 334 332 331 330 329 327 326 325 323 322 322 322 321
327 327 326 326 326 326 327 326 326 327 327 326 326 326 323 324 327 326 327 328 328 327 326 326 329 331 331 332 330 329 329 324 320 322 317 328 328 327 331 332 334 334 334 336 337 338 340 339 339 337 338 338 338 337 337 337 335 335 335 333 329 326 326 325 333 338 340 340 339 336 336 336 336 333 332 331 329 328 327 326 325 324 323 322 322
326 325 326 326 326 326 326 327 325 325 324 325 325 325 326 326 327 327 326 325 326 324 323 326 325 326 329 329 329 328 328 328 328 324 321 318 322 326 326 331 332 334 334 335 337 338 340 340 338 337 339 339 339 339 339 338 339 339 337 328 325 324 323 322 321 323 333 339 340 339 336 336 335 334 333 331 330 329 328 327 326 325 323 323 323
325 324 324 324 325 325 326 325 323 322 322 322 324 325 326 326 326 326 325 324 324 324 323 321 323 322 323 324 324 325 325 326 328 328 322 320 320 321 323 327 330 333 336 337 337 339 339 338 337 337 338 340 340 339 339 342 341 343 337 326 325 323 322 321 317 316 316 328 336 340 338 337 335 335 334 332 331 330 329 327 327 326 325 324 323
323 323 321 319 320 321 320 320 320 319 318 319 320 321 322 323 324 325 326 325 324 324 322 322 322 322 322 322 320 320 321 322 323 322 324 325 317 317 321 320 319 328 333 334 336 337 337 338 337 335 336 337 339 339 340 340 342 340 336 323 324 322 322 320 313 315 317 318 328 334 338 338 336 336 335 334 334 331 329 329 328 328 327 325 324
321 322 320 320 321 321 320 320 320 319 317 317 319 317 319 320 320 321 322 322 322 323 322 322 322 321 321 320 318 318 318 317 318 320 320 320 318 317 318 319 318 320 327 331 333 333 332 334 334 334 336 337 337 338 339 341 335 333 325 322 322 321 320 318 314 313 315 322 324 330 335 337 337 337 335 336 335 334 332 331 330 330 329 327 326
320 319 321 322 321 320 320 320 319 319 317 318 319 319 319 319 319 319 319 320 320 319 320 319 320 319 319 319 319 319 319 318 318 318 318 318 318 317 316 317 318 320 322 328 328 327 326 327 330 333 334 333 335 337 337 339 337 326 331 326 322 319 318 317 314 313 311 316 321 325 331 336 337 338 337 336 336 335 335 333 333 332 330 328 327
318 319 320 322 321 321 320 318 318 319 318 317 318 318 318 318 318 319 319 318 318 318 316 318 317 317 316 318 317 318 317 318 318 318 318 318 317 314 315 316 314 316 317 318 319 323 324 323 325 327 331 334 335 335 336 338 338 329 324 329 321 320 317 316 315 313 312 311 314 320 325 331 335 337 338 337 335 335 335 334 328 323 323 323 325
320 319 321 321 321 322 321 320 319 319 318 319 319 318 319 316 317 317 317 317 318 318 317 318 317 316 316 315 316 314 315 317 317 317 316 314 313 314 314 313 314 311 314 314 316 315 319 322 324 325 326 327 329 333 336 334 338 322 322 329 328 318 318 316 314 311 309 308 308 314 317 321 327 333 336 336 334 330 328 323 319 319 317 317 316
322 321 321 322 323 322 321 320 319 319 318 318 317 318 318 317 318 318 318 317 317 317 316 317 316 315 315 315 314 315 314 313 313 315 314 315 314 314 312 309 309 311 311 312 314 314 314 318 320 320 324 327 329 332 333 335 328 322 322 337 337 322 316 316 314 313 310 308 307 307 309 313 315 318 321 322 321 319 322 322 320 316 316 315 314
324 323 322 323 322 322 321 320 319 319 319 318 317 316 317 316 316 317 316 316 317 317 316 317 316 315 315 315 314 313 314 312 313 313 312 314 314 314 313 311 307 305 310 309 311 312 317 316 319 322 323 325 330 332 329 326 329 320 322 333 334 332 317 315 315 314 312 311 310 308 307 307 309 310 312 314 318 319 321 322 320 316 314 314 315
324 325 323 323 323 323 322 321 320 319 319 318 317 317 317 317 316 316 316 316 316 315 316 316 315 316 314 314 314 314 313 314 313 313 314 314 314 313 313 310 311 307 305 306 309 311 315 317 316 321 321 321 327 328 327 327 324 322 327 328 331 334 325 315 313 312 312 311 309 308 307 307 308 309 311 313 315 318 317 317 318 316 315 315 315
326 325 325 324 323 322 322 321 321 319 318 318 317 316 317 315 316 315 315 316 315 315 314 314 314 314 313 313 314 313 314 314 314 313 314 314 313 313 314 313 313 309 308 306 306 311 311 316 316 315 322 323 324 325 325 323 319 319 321 323 326 329 314 316 312 310 311 311 309 309 307 307 308 309 311 311 313 315 314 313 315 315 314 313 314
325 325 324 323 323 322 322 321 320 319 318 318 317 317 316 315 315 314 315 315 313 313 313 313 313 313 312 312 312 312 312 314 314 315 314 313 313 313 313 314 313 313 310 309 306 311 315 313 316 318 317 317 318 320 321 322 320 320 322 324 323 319 318 323 316 313 311 310 309 308 308 307 307 307 308 311 313 313 314 315 315 315 315 314 312
324 324 323 322 323 322 321 320 320 319 318 318 317 317 317 316 315 314 314 313 312 312 311 312 310 312 311 311 311 310 311 310 313 312 312 313 313 311 312 313 313 313 312 310 308 308 314 314 315 316 316 317 317 316 317 317 317 316 323 324 325 317 322 325 316 314 313 310 309 308 308 307 307 307 306 307 308 310 311 312 314 314 314 312 311
323 323 322 322 321 322 321 320 319 319 318 318 318 317 316 315 314 314 312 312 311 311 311 311 310 310 308 309 309 311 312 311 311 311 311 310 311 312 311 310 310 312 311 310 308 308 312 316 316 314 316 317 315 316 315 318 320 323 320 324 325 325 324 324 324 313 311 310 308 307 306 306 305 306 305 305 306 307 308 310 312 313 311 310 309
322 322 321 322 322 322 320 320 319 318 318 317 317 316 315 314 314 314 313 311 310 310 310 309 310 309 310 309 307 309 310 308 311 309 309 309 308 309 309 311 309 310 312 309 307 307 307 312 312 314 314 315 311 315 316 317 317 318 317 319 320 320 321 322 325 329 308 309 307 306 306 306 305 305 304 304 304 305 306 307 306 307 310 308 308
322 322 321 322 322 321 321 320 319 318 317 316 316 315 314 314 312 313 312 312 311 310 310 308 307 308 309 309 309 309 310 309 309 311 311 310 310 308 309 309 309 310 309 309 308 306 306 307 311 310 312 313 313 312 313 315 316 315 314 316 316 317 319 322 322 323 307 308 305 306 305 305 305 304 303 303 303 303 303 305 305 305 306 307 307
322 322 321 321 321 321 320 320 319 318 317 316 315 315 314 313 312 311 311 311 311 310 308 308 307 307 308 308 308 308 309 307 308 307 308 310 310 309 309 310 310 309 311 310 309 307 306 305 308 308 310 309 311 312 312 313 313 313 314 315 317 317 319 319 320 321 313 306 305 306 307 306 305 304 302 302 303 303 302 302 304 304 304 306 306
322 322 321 322 321 320 320 319 319 318 317 316 315 314 314 314 312 311 310 310 310 309 309 308 307 308 307 307 307 307 307 307 307 307 307 307 306 306 306 306 307 308 309 310 309 309 307 306 307 309 310 309 310 311 311 310 310 312 313 314 315 316 318 319 319 319 312 306 309 307 306 306 304 303 302 303 303 302 302 302 303 304 305 305 306
323 322 321 321 320 319 319 320 319 318 317 316 314 314 313 313 312 311 311 310 309 308 308 307 306 307 307 306 306 306 306 306 306 307 308 307 307 307 307 306 306 306 307 307 308 308 307 306 307 307 309 308 308 309 311 311 310 309 310 312 313 313 314 316 318 318 322 324 327 327 312 307 305 302 304 304 302 301 301 302 302 303 304 305 305
322 322 322 321 321 320 319 320 318 318 316 315 314 314 313 312 311 310 310 310 309 308 306 305 305 306 305 305 305 306 306 306 305 306 307 307 307 307 307 307 307 307 306 306 306 306 306 305 306 307 307 308 309 307 310 311 310 309 308 309 310 314 317 318 319 320 323 324 318 311 314 315 309 314 307 302 302 302 302 302 302 303 304 304 304
322 322 321 319 320 319 319 319 318 318 316 314 314 313 312 312 311 310 309 308 307 306 306 305 305 304 304 304 304 304 304 305 306 306 306 305 305 306 307 307 307 306 306 305 305 305 305 305 304 305 306 306 307 309 309 309 308 309 310 310 310 310 312 314 316 316 318 320 320 323 314 311 309 309 302 302 302 303 303 303 302 303 303 303 303
323 322 321 319 319 319 319 319 317 316 315 314 314 312 311 311 311 309 308 305 305 304 304 304 304 303 303 304 303 303 303 299 297 297 298 298 299 300 302 304 305 304 305 305 304 303 303 303 303 305 304 305 306 306 306 307 307 308 311 310 308 308 309 310 313 316 316 316 319 319 320 323 323 325 325 325 322 308 308 304 309 304 303 302 302
322 321 320 320 319 319 318 317 316 315 314 314 307 301 304 310 309 306 306 305 304 303 303 303 303 303 303 303 304 299 300 298 297 295 294 294 296 299 300 302 302 303 303 303 302 303 303 302 302 303 302 303 304 306 306 307 308 310 308 309 307 308 309 308 310 313 315 316 315 315 317 320 321 323 325 325 328 318 325 316 320 316 307 301 302
321 319 319 319 319 318 317 315 314 314 313 307 294 294 294 297 305 306 305 304 303 302 302 302 302 302 302 301 303 302 302 300 300 294 293 293 293 293 294 295 297 299 300 300 301 302 301 302 302 303 302 303 304 306 306 306 307 307 307 308 307 307 305 304 304 310 316 317 317 316 317 321 322 321 322 323 325 327 327 326 311 306 305 301 301
320 319 318 318 317 317 317 315 314 313 310 296 292 292 294 294 297 304 304 303 302 302 302 301 301 301 301 301 302 302 303 302 300 300 298 294 292 292 292 292 292 292 293 298 299 299 301 301 301 302 302 302 303 304 305 306 305 306 306 306 306 305 305 305 305 305 313 317 314 313 313 319 321 320 321 322 324 325 326 315 305 303 303 301 301
321 319 318 316 316 316 315 313 312 310 304 292 292 292 292 292 292 298 303 302 301 302 302 301 301 301 301 301 301 301 302 299 299 301 302 302 296 292 292 292 292 292 291 290 292 298 299 299 300 300 301 302 302 303 305 305 306 304 304 303 304 305 305 304 305 306 310 314 313 311 310 314 317 316 317 320 322 324 324 309 306 304 302 302 301
319 318 318 317 316 315 314 313 311 308 302 293 291 291 292 291 290 294 302 302 302 301 300 301 301 301 301 300 299 300 301 301 302 301 301 301 300 300 301 301 301 299 293 291 290 291 294 297 298 297 300 302 300 303 305 305 303 301 301 301 303 302 303 304 306 307 309 311 308 308 307 310 314 315 315 318 322 322 324 313 302 303 302 301 301
318 317 316 315 314 313 312 311 309 305 300 291 291 291 291 290 289 293 303 302 301 302 302 302 301 301 301 301 301 300 300 300 301 299 299 298 299 299 299 299 300 300 301 301 301 301 299 298 299 300 300 301 301 302 304 304 304 303 303 302 302 302 302 303 303 304 305 308 308 307 303 308 312 311 313 316 319 320 323 302 301 300 300 300 299
316 316 315 314 312 311 310 308 305 302 298 290 290 290 290 290 289 298 301 301 301 301 301 301 301 301 301 300 300 300 300 299 296 291 294 297 297 297 296 298 298 299 300 298 296 296 299 300 301 301 302 302 296 299 299 299 300 301 302 302 302 301 300 298 298 301 302 306 307 305 304 306 310 310 311 315 317 317 319 315 298 300 299 299 298
314 313 313 312 311 309 307 305 304 300 296 292 290 290 290 289 292 299 301 301 301 301 301 301 301 301 301 300 300 299 299 299 294 290 290 291 296 296 296 296 297 297 298 300 296 293 292 292 292 291 291 291 291 292 292 292 296 298 298 298 297 299 297 296 298 299 300 304 306 307 306 305 309 310 310 313 314 314 315 317 315 298 297 298 297
312 312 312 309 308 306 304 302 301 299 296 293 290 290 290 289 293 300 301 300 300 300 300 301 301 301 301 299 298 298 298 299 292 289 289 293 295 295 295 295 295 295 296 298 299 299 293 291 291 291 291 291 291 291 292 292 292 294 297 294 297 297 296 296 295 298 300 303 304 308 305 304 308 310 309 312 313 317 316 316 314 306 297 296 295
311 309 307 306 304 303 303 302 300 300 297 294 290 290 290 289 295 300 299 299 299 299 299 298 300 300 300 299 297 297 297 296 290 290 289 291 295 294 294 293 293 293 295 297 297 296 297 297 297 297 296 294 296 297 297 293 292 294 297 297 297 295 294 295 296 297 297 299 304 308 303 304 306 308 309 308 307 312 315 314 310 312 310 310 307
Wind_Speed
4 4 3 4 3 4 4 5 5 6 4 4 3 3 3 3 4 4 4 5 5 6 6 6 5 5 5 5 5 4 4 4 4 4 4 3 3 11 11 6 3 3 4 4 5 6 6 5 5 6 6 5 4 4 4 3 3 4 3 2 3 4 5 7 7 7 7 7 7 8 8 7 7 7 7 7 8 8 9 9 10 11 11 12 12
4 4 4 3 2 3 5 5 5 3 3 3 2 1 1 3 4 4 3 5 5 5 6 6 7 5 6 6 5 6 4 5 5 5 3 3 2 9 12 9 5 3 3 4 4 6 7 6 6 5 6 4 5 5 4 3 4 3 3 3 2 2 1 6 7 6 6 7 7 7 8 7 7 7 7 7 7 7 8 9 9 10 10 11 11
4 5 3 4 4 5 5 4 5 4 4 3 1 2 2 1 2 3 5 4 5 6 6 7 6 7 6 7 6 6 5 5 4 4 4 4 4 4 10 12 9 7 4 4 3 4 6 6 6 6 7 5 4 5 5 4 4 4 4 3 2 1 2 4 7 6 6 7 7 7 7 7 7 7 7 7 7 7 7 8 9 9 10 10 11
3 4 4 4 4 5 4 5 5 3 4 3 4 3 2 3 3 3 4 5 4 4 6 6 6 6 6 7 7 7 7 6 6 6 5 4 3 4 4 9 12 10 9 6 5 5 5 8 7 8 6 6 5 4 4 5 4 4 4 4 2 2 1 2 6 8 6 7 7 7 7 7 7 7 7 7 6 6 7 7 8 9 9 10 10
5 4 2 2 3 3 3 4 5 5 5 5 4 4 4 4 4 4 3 4 5 5 5 5 5 5 5 5 5 7 7 7 7 6 5 5 5 4 4 5 8 12 11 10 8 6 6 6 7 7 7 6 6 5 5 6 6 4 4 5 4 4 2 1 5 8 8 7 8 8 7 7 7 7 7 7 7 7 7 7 7 8 9 9 9
4 4 2 3 3 3 3 4 5 6 4 4 5 5 5 6 8 7 7 6 6 5 5 6 5 5 5 5 5 6 7 7 7 7 6 6 5 4 5 4 5 7 10 14 12 10 9 7 7 8 7 6 7 6 6 6 7 7 6 6 6 5 5 4 4 8 9 8 8 8 7 7 8 8 7 7 8 8 7 7 7 8 9 9 9
4 4 4 3 3 3 3 4 4 6 5 5 5 6 5 6 6 7 7 7 7 6 6 5 5 6 4 4 6 6 6 7 6 6 6 6 5 5 5 5 4 4 6 8 12 13 12 10 9 8 7 8 8 8 8 7 6 8 5 7 8 8 7 6 5 5 9 9 8 8 8 8 8 8 8 8 8 8 8 7 7 7 8 8 9
5 4 3 3 4 3 3 2 4 5 6 5 5 5 5 5 5 6 6 7 7 6 5 4 4 5 4 5 5 6 6 7 7 7 7 6 6 6 5 5 5 5 5 4 6 11 14 12 11 9 7 7 9 9 9 7 6 8 7 8 9 9 8 9 8 5 9 9 9 9 9 9 9 9 9 9 9 9 9 8 8 8 8 8 8
3 3 3 3 4 4 2 2 1 4 5 5 4 3 3 5 5 6 6 5 6 6 4 2 4 4 4 5 5 5 6 6 6 6 7 6 5 6 5 5 5 4 5 6 5 6 15 15 13 11 10 9 8 10 10 9 8 8 8 8 10 10 9 10 10 9 9 10 9 9 9 10 11 11 10 10 9 9 9 9 9 9 8 8 8
5 5 4 3 2 3 5 4 6 5 4 4 4 3 4 4 4 4 5 5 5 5 4 1 3 4 4 5 5 4 6 6 6 6 6 6 7 6 6 5 5 6 6 6 5 5 6 13 15 14 13 11 10 10 12 11 9 8 9 10 10 11 12 11 11 10 10 11 11 10 10 10 11 12 11 11 10 10 10 10 10 9 9 9 9
3 4 3 4 3 3 5 7 5 4 4 6 6 6 6 5 5 4 4 4 2 2 1 1 1 4 5 5 6 6 5 6 6 6 7 8 7 7 6 6 6 6 6 6 6 6 5 6 8 9 11 15 13 12 14 13 12 11 10 10 10 12 14 12 11 11 11 10 12 11 10 11 12 12 12 11 11 11 10 10 10 10 10 10 10
2 2 2 2 3 3 3 5 5 5 5 5 6 7 7 7 6 7 6 5 4 3 3 3 2 3 3 4 7 7 9 7 7 8 7 7 7 6 7 7 7 7 7 6 5 5 5 5 6 7 7 14 17 15 15 14 13 13 13 11 11 10 15 14 12 12 12 11 12 12 10 12 12 12 12 12 11 11 11 11 11 11 10 10 10
0 1 1 1 1 2 4 4 4 4 4 5 4 5 6 5 6 6 7 7 6 5 4 3 3 2 2 4 4 5 9 10 9 7 8 7 7 7 7 7 7 7 7 6 6 6 6 6 6 6 7 5 12 16 16 15 14 14 16 15 14 12 13 15 15 13 12 13 13 14 13 14 13 13 13 12 12 12 12 12 11 11 11 10 10
2 1 1 1 1 2 2 2 3 4 2 2 3 3 5 5 6 5 6 7 6 6 5 4 2 4 3 1 4 5 6 8 9 8 8 8 7 7 7 7 8 8 6 6 7 7 7 6 6 6 6 7 7 9 11 12 13 16 16 17 17 15 14 15 16 15 14 13 13 14 12 15 15 14 14 13 13 12 12 12 12 12 11 10 10
3 3 2 1 1 1 2 2 2 3 4 4 4 3 2 4 6 6 5 5 5 6 6 5 3 3 2 2 3 3 4 5 5 8 8 9 7 7 7 8 8 7 6 6 6 6 7 7 7 6 6 6 6 7 8 10 11 16 17 17 17 17 17 15 16 17 16 12 13 14 14 15 15 16 16 15 15 13 13 13 13 13 12 11 11
3 3 3 3 2 2 1 1 3 4 3 4 4 4 3 4 2 4 4 4 5 4 4 6 4 4 4 4 0 1 2 3 3 5 6 8 9 9 8 7 8 8 6 8 7 7 6 7 7 7 7 7 6 6 6 7 11 16 18 18 18 17 19 18 16 17 15 14 15 14 15 16 17 17 16 16 16 15 14 13 14 14 13 12 12
4 3 4 3 3 2 3 3 3 2 1 3 4 4 2 3 4 4 3 3 4 2 4 3 4 2 2 1 2 4 2 1 2 3 2 5 5 7 8 7 7 6 6 7 6 7 7 7 7 7 7 7 7 7 7 7 7 9 12 17 18 17 17 18 17 17 16 15 15 16 17 17 18 17 17 16 16 15 15 14 14 14 14 13 13
3 4 4 4 3 3 3 3 4 3 3 3 4 4 3 3 3 2 2 1 4 5 4 3 1 0 1 2 1 2 3 1 2 1 2 2 4 4 6 4 5 5 5 6 7 6 6 6 7 7 7 8 8 8 8 8 7 7 8 10 17 17 17 17 18 17 17 17 15 15 15 19 19 17 17 16 16 16 16 15 15 15 14 14 14
4 4 4 4 4 3 3 3 4 3 4 4 4 3 3 3 2 2 2 2 4 1 4 4 4 3 1 1 2 2 3 3 3 3 4 1 5 7 4 2 2 2 4 4 4 4 4 4 5 7 7 7 7 8 8 8 9 8 7 5 17 17 17 16 16 17 18 18 18 16 15 17 19 18 17 18 18 18 17 16 17 17 16 15 15
4 4 4 4 4 4 4 4 4 4 4 4 4 4 4 4 4 3 3 3 3 4 3 3 1 3 2 2 1 0 2 3 4 3 4 4 3 3 10 4 5 3 4 4 3 2 3 4 5 6 5 6 6 6 8 8 8 9 10 10 10 14 15 15 15 14 15 17 18 17 17 14 16 16 17 18 18 18 18 18 18 17 17 16 16
4 5 5 5 4 4 4 4 4 4 4 5 5 6 5 5 4 4 4 4 3 2 2 2 2 3 2 1 2 2 2 3 1 2 4 5 4 6 3 3 7 5 2 3 4 3 4 4 5 6 5 5 5 6 6 6 6 6 7 11 12 12 13 14 14 14 14 13 15 17 17 17 15 18 17 18 17 17 18 19 18 18 18 18 17
5 6 6 6 6 6 5 5 5 5 5 6 6 6 5 5 5 5 5 5 4 4 4 2 2 1 2 2 3 3 4 3 3 2 3 5 4 5 5 5 4 2 1 4 6 5 5 5 6 7 7 6 6 6 7 6 5 6 5 10 11 12 12 12 14 14 14 14 12 16 16 15 17 16 19 21 21 20 20 19 19 19 19 19 19
6 6 6 6 6 6 5 6 5 5 5 5 4 5 5 5 5 5 5 4 4 5 4 3 2 2 1 2 2 2 3 4 4 4 5 5 5 6 6 6 5 5 4 5 4 6 7 6 6 6 6 6 6 5 6 7 6 4 8 6 7 10 11 13 14 14 14 14 13 14 16 16 15 17 17 22 22 21 22 22 22 22 21 21 20
6 6 6 6 6 6 6 6 5 5 5 4 4 5 5 4 4 4 4 5 4 3 4 4 3 3 2 2 2 1 1 2 2 2 3 4 5 6 6 6 6 5 3 3 5 7 8 7 6 6 5 6 6 5 4 5 5 7 3 6 8 8 10 12 13 14 14 14 14 14 15 16 16 17 19 20 22 22 22 23 23 22 22 22 21
6 6 7 7 6 6 6 5 5 5 5 5 5 5 5 5 5 5 5 5 4 4 4 4 3 2 2 1 1 1 1 1 2 2 3 4 5 6 6 6 6 7 7 7 6 6 6 6 7 7 6 4 5 5 3 4 5 7 6 5 9 9 10 11 12 13 14 14 14 14 14 15 16 17 19 20 21 23 23 22 21 18 18 18 18
7 7 7 7 6 6 6 6 6 6 5 5 5 5 5 5 5 5 5 5 5 5 5 4 3 3 1 0 1 0 1 1 2 2 3 3 4 4 6 6 6 8 7 7 7 6 4 5 4 4 4 5 4 2 3 4 3 8 6 5 5 10 11 11 11 13 13 14 14 14 15 15 16 17 17 18 17 17 19 19 18 18 17 17 16
7 7 8 6 6 6 6 7 7 6 6 5 5 5 4 4 5 5 4 4 4 3 4 3 3 3 2 1 1 0 1 1 2 3 3 3 4 4 4 6 6 6 7 6 6 7 6 6 7 6 5 4 3 3 3 3 3 7 4 5 7 8 11 11 12 11 12 12 13 14 14 15 15 15 15 13 12 13 20 19 17 17 18 18 17
7 8 8 7 7 7 7 7 7 7 6 6 5 5 4 4 4 4 4 3 4 4 3 3 3 3 2 1 1 1 1 1 3 1 3 3 4 4 4 4 6 7 5 6 6 5 4 5 4 2 4 4 2 3 3 5 2 5 7 7 6 4 10 11 11 12 12 12 13 14 14 15 15 15 14 14 14 13 15 19 18 19 19 18 18
7 8 9 8 8 8 7 8 7 7 6 6 6 6 5 4 4 4 4 4 3 4 3 3 3 1 2 2 3 1 1 2 2 3 3 3 4 4 5 5 4 6 6 7 5 5 4 4 4 3 5 4 2 4 5 7 4 7 7 7 6 7 3 10 11 11 12 12 13 13 14 15 15 14 14 14 14 14 12 16 18 20 20 20 19
8 8 9 9 8 9 8 8 7 7 7 6 6 7 6 5 5 5 4 4 3 3 3 3 2 2 2 2 2 1 3 3 2 3 3 3 4 4 4 5 5 6 6 7 7 5 6 5 6 6 3 4 4 4 5 6 8 9 10 9 8 7 7 4 8 10 11 12 13 14 14 14 14 14 14 15 14 14 13 15 19 21 20 20 21
9 9 10 10 9 9 8 8 7 7 7 6 6 6 6 6 6 5 5 4 3 3 3 2 2 1 1 1 1 1 2 2 2 2 2 3 4 4 4 5 5 5 7 7 8 5 3 5 4 5 7 8 7 8 7 7 8 8 9 9 10 5 3 9 11 13 14 13 13 13 13 14 14 14 14 14 13 14 17 18 18 19 21 22 22
9 11 10 11 10 10 9 8 8 8 7 7 6 6 6 5 5 5 5 5 5 4 3 2 2 1 1 1 0 2 2 3 2 2 3 2 3 5 5 5 5 5 6 7 9 9 6 7 7 7 8 8 7 8 9 8 7 6 9 9 9 10 10 10 13 16 14 13 13 13 12 13 13 13 11 11 14 17 18 17 16 19 22 23 23
10 11 11 11 11 11 11 10 10 9 8 7 6 6 5 5 4 5 6 5 5 4 3 4 3 1 1 1 1 1 1 3 3 3 3 3 4 4 4 5 5 5 6 7 9 9 7 5 6 7 7 7 8 8 9 7 7 6 8 9 9 9 9 9 10 12 15 14 12 11 11 12 13 12 11 12 15 17 16 17 17 18 21 23 22
12 12 12 11 11 11 10 11 10 10 9 8 7 6 5 6 6 4 5 5 4 4 3 2 3 2 1 1 1 1 2 3 3 5 4 3 4 5 4 4 5 5 5 7 8 8 9 7 7 7 7 7 9 7 7 8 8 8 10 9 8 10 9 9 8 6 14 12 12 10 10 11 11 11 11 12 13 14 14 16 17 16 19 22 23
12 12 12 12 12 12 11 11 10 10 10 9 7 7 6 7 6 5 5 4 4 4 3 2 1 1 2 1 1 1 1 3 3 4 4 5 5 5 5 5 6 6 7 7 8 9 10 9 8 8 7 6 7 9 9 8 8 9 10 10 9 8 8 8 8 8 12 11 10 9 10 10 11 12 11 12 13 13 14 16 16 16 18 20 23
11 12 13 13 13 12 12 11 11 10 10 9 9 8 8 8 7 7 6 5 4 3 2 1 0 1 1 1 1 1 1 3 3 3 4 4 4 5 6 6 6 7 7 7 8 9 9 10 8 8 8 8 8 8 8 8 9 9 9 9 9 9 10 9 9 10 9 10 11 9 10 11 12 12 12 12 12 13 14 15 16 17 18 20 22
11 11 12 13 13 14 12 13 12 12 11 10 10 9 8 8 7 6 6 5 4 3 2 1 2 2 2 2 2 2 2 3 3 3 3 5 5 6 6 6 7 7 6 6 8 9 10 11 10 9 9 9 9 9 8 9 8 8 9 9 8 9 9 9 9 9 6 14 10 11 11 12 12 13 12 12 13 13 14 16 17 18 18 20 21
11 11 12 11 11 13 13 13 13 12 12 11 11 10 9 8 7 6 5 5 4 3 3 2 1 1 2 2 2 3 3 4 4 3 4 6 5 6 7 7 7 7 8 9 9 10 11 11 10 10 9 9 9 8 8 9 9 8 8 8 9 9 10 9 9 8 7 5 6 7 10 11 14 13 11 12 13 14 14 15 16 18 19 19 21
12 12 12 13 11 12 13 13 13 13 12 11 10 10 9 9 8 7 6 5 4 3 2 2 1 1 2 2 2 3 4 4 4 5 5 6 5 7 7 7 7 7 7 8 9 10 11 11 10 10 10 9 9 9 8 8 9 9 9 9 8 6 6 6 7 6 6 8 9 11 11 9 0 7 12 14 14 15 14 14 15 17 18 19 19
12 13 13 14 13 13 13 13 12 11 11 11 10 10 9 8 7 7 6 4 3 3 3 2 2 1 1 2 2 2 3 4 4 5 6 6 6 7 7 7 7 8 8 8 9 9 10 10 10 9 8 9 8 9 8 8 8 8 7 7 7 7 7 8 9 9 8 8 9 7 11 9 9 11 9 12 15 15 15 13 15 15 17 17 18
10 12 13 14 14 14 13 13 12 11 10 9 9 9 9 8 7 6 5 5 4 3 3 3 2 1 1 1 2 1 3 5 6 7 8 8 7 8 8 8 8 9 9 9 9 9 10 10 11 10 10 9 9 9 8 7 7 7 6 6 9 9 9 9 9 9 8 9 9 9 8 8 9 8 8 9 11 15 13 14 11 15 17 15 16
11 11 12 12 13 14 14 13 12 10 9 7 7 8 4 7 7 5 5 5 4 3 2 2 2 1 1 2 1 3 4 7 8 9 10 10 10 9 9 8 9 9 9 10 10 10 10 11 11 10 11 10 9 8 9 9 8 8 9 8 9 8 8 9 9 9 9 10 10 10 9 8 9 9 9 10 3 9 7 9 8 8 12 17 16
12 11 11 12 11 10 13 13 13 11 9 7 13 11 9 4 4 5 5 4 3 3 3 2 2 2 2 2 4 3 8 10 11 14 13 12 12 13 13 14 13 11 10 11 11 11 11 11 11 11 11 12 10 9 9 9 9 9 9 8 9 8 9 9 9 6 6 8 8 8 8 8 8 9 10 10 9 9 6 10 7 12 10 14 16
10 10 11 12 14 14 11 12 12 11 9 13 14 13 11 6 2 3 3 3 3 3 3 2 2 2 2 3 3 3 4 4 7 7 8 13 14 14 13 14 14 15 16 13 12 11 11 12 12 12 12 12 11 10 9 9 8 8 8 9 9 10 10 10 9 8 4 5 8 9 10 8 9 10 10 10 9 7 6 3 7 9 9 9 13
9 10 11 11 12 12 12 12 11 10 10 13 14 13 11 9 5 2 4 3 3 3 3 3 3 3 3 4 4 4 3 4 6 6 7 7 8 13 13 14 15 16 15 17 18 16 14 14 14 15 13 12 13 11 11 10 9 11 10 10 9 10 10 11 10 9 8 6 8 9 10 9 8 9 10 10 9 9 5 10 11 9 8 9 10
10 11 11 12 12 12 12 12 11 10 12 13 15 13 12 10 8 4 3 4 3 3 4 4 4 4 4 5 5 5 5 5 6 6 6 7 9 8 8 9 10 12 18 21 20 20 19 16 16 16 14 13 14 13 12 11 12 12 11 11 10 12 12 13 13 13 11 8 10 9 10 10 8 9 10 9 9 8 6 8 12 9 8 8 9
11 10 11 12 11 10 11 11 11 11 10 15 14 14 12 10 8 5 3 3 4 5 5 5 5 6 6 5 6 6 6 6 5 5 8 9 9 9 9 10 10 11 11 12 12 14 14 15 17 17 16 15 16 16 15 14 15 14 13 14 14 14 15 15 15 15 14 12 13 11 13 9 8 10 10 10 9 10 4 9 12 9 5 5 8
7 8 9 10 11 12 11 11 11 11 11 16 14 14 13 10 10 5 4 5 5 5 5 6 6 6 6 6 6 6 7 7 6 3 5 7 10 11 11 11 11 11 11 12 12 10 13 14 13 12 12 13 14 12 12 11 11 11 11 13 13 13 14 15 15 11 13 11 12 13 12 12 9 10 10 9 9 9 7 8 6 9 6 1 5
8 9 9 10 10 10 10 10 10 9 10 11 13 13 13 11 8 5 4 4 5 5 6 6 7 7 7 7 6 7 8 9 4 4 1 4 10 11 12 12 12 12 12 11 11 15 17 17 17 19 20 20 20 19 17 17 13 11 12 13 14 13 15 15 14 13 12 10 11 12 12 12 10 9 10 9 10 10 9 6 6 11 8 4 5
8 8 8 8 8 8 9 10 10 10 10 10 12 12 12 13 9 4 3 4 5 6 7 7 7 7 7 5 8 10 10 9 3 3 1 5 10 11 12 13 14 13 13 11 11 11 12 15 16 17 18 18 20 22 23 21 19 14 13 18 17 14 17 15 15 13 12 11 10 10 12 13 10 10 11 9 10 5 5 4 4 6 6 4 2
7 7 8 8 8 8 8 9 10 10 10 10 12 13 11 12 8 4 4 5 5 6 6 7 7 7 7 7 11 11 10 10 6 5 5 7 10 12 14 15 15 15 14 14 14 14 14 14 13 12 13 16 17 17 17 20 20 18 18 18 18 18 19 16 15 14 14 12 10 11 13 11 11 11 10 9 11 9 7 6 4 4 4 5 5
Wind_Direction
189 180 192 186 192 195 203 209 215 207 192 217 220 204 201 177 174 177 198 217 224 223 221 216 195 205 216 212 229 216 214 208 205 206 189 162 217 146 168 177 203 222 242 201 161 161 165 164 171 154 162 164 176 155 158 174 162 168 273 166 48 51 145 132 128 124 112 109 114 116 111 110 104 101 100 94 93 93 89 90 88 87 85 81 81
175 198 184 162 176 214 212 213 222 218 199 206 225 228 215 175 188 188 209 207 221 226 237 217 214 209 215 218 209 233 199 212 205 211 179 193 199 137 167 168 187 202 238 273 210 172 170 165 176 155 166 171 171 161 170 193 160 195 223 211 72 29 73 149 138 129 124 117 115 118 117 115 111 106 107 105 99 101 98 99 99 95 93 90 88
191 203 155 155 194 206 220 224 218 211 205 178 134 223 149 159 226 181 210 215 213 217 225 222 227 211 202 222 215 226 214 218 217 213 204 198 195 177 163 167 176 190 210 220 275 236 185 178 172 164 168 167 165 170 175 192 181 184 221 180 129 48 57 177 141 138 132 130 125 123 120 119 123 116 111 113 110 107 108 104 104 103 99 95 91
209 210 185 185 206 214 208 215 216 237 207 178 184 205 166 154 149 151 188 208 228 227 230 232 219 230 206 213 213 217 222 210 219 212 227 210 215 204 174 173 171 179 197 209 218 245 233 189 185 185 176 167 162 164 165 175 204 196 211 208 174 147 141 176 174 151 146 143 136 131 131 129 125 128 116 111 113 112 112 112 108 108 105 102 97
261 233 204 210 231 224 223 217 207 216 225 189 179 192 164 155 173 182 154 214 199 220 234 236 232 234 236 215 210 222 227 218 213 221 220 224 222 225 218 201 179 179 185 195 204 219 236 232 203 195 187 190 161 172 164 185 179 187 214 211 228 212 203 225 196 162 154 153 149 141 143 139 134 133 135 125 122 119 114 113 106 106 107 105 104
195 236 200 167 222 234 215 216 215 206 201 189 191 195 183 177 177 184 180 192 208 202 221 234 239 235 226 235 222 233 228 226 219 217 226 237 241 240 239 223 210 184 185 188 193 203 217 225 226 215 198 191 178 178 178 197 165 176 186 207 220 231 226 215 201 191 161 161 160 154 148 146 147 141 143 140 132 131 126 118 113 103 104 106 106
195 231 225 203 212 236 205 211 210 204 193 190 204 198 195 191 182 193 176 190 198 207 219 237 247 246 238 228 234 223 233 245 237 233 218 220 236 235 241 242 231 236 212 184 187 194 203 208 220 229 222 202 188 192 194 194 183 182 184 194 214 218 222 226 221 211 183 166 164 164 162 156 157 156 149 152 146 141 138 132 129 123 113 114 112
198 206 242 196 198 214 251 213 206 204 205 197 206 206 202 204 197 213 185 195 197 201 225 231 247 260 260 256 246 242 224 222 227 229 231 224 222 227 225 234 233 225 238 234 197 188 193 201 208 216 218 222 209 199 207 211 198 186 194 208 212 215 218 217 221 204 194 176 174 175 172 167 166 166 163 158 160 151 148 145 136 135 130 126 124
183 192 220 209 205 209 187 214 247 229 209 212 216 213 208 211 210 213 216 209 205 206 201 238 258 270 275 254 261 261 246 228 220 223 233 213 228 216 224 234 233 230 233 240 229 204 185 192 199 207 213 217 221 218 208 207 211 205 203 210 206 205 212 216 216 214 197 191 186 189 184 176 173 172 169 168 165 164 157 152 151 144 143 137 132
188 188 203 229 226 206 150 241 212 217 203 196 208 217 228 236 220 224 222 220 212 210 200 188 267 271 277 273 261 261 265 255 220 221 229 214 211 227 212 212 223 219 224 229 237 234 184 190 197 203 210 208 210 217 220 219 219 213 209 211 214 205 209 217 219 215 208 202 200 199 190 182 178 176 174 174 172 170 166 161 159 156 152 149 142
153 162 175 190 204 209 177 212 194 177 201 199 196 200 213 223 222 230 249 252 226 205 196 184 289 308 292 314 297 274 275 267 254 218 219 223 217 210 213 205 211 222 226 230 225 223 229 201 196 208 207 206 204 205 214 218 223 227 218 213 221 208 207 214 218 219 216 208 205 206 198 184 182 182 181 180 178 175 175 170 166 165 161 158 154
142 111 158 170 179 183 190 184 182 189 201 201 201 195 204 211 222 228 224 236 241 219 198 195 187 231 275 303 286 292 275 266 251 242 235 223 223 225 228 211 216 214 219 229 233 234 220 226 227 223 227 191 201 203 209 211 214 221 228 229 225 216 204 210 216 217 215 213 200 205 195 183 185 189 186 184 184 181 180 178 176 171 170 166 162
268 192 163 209 202 179 173 179 171 187 203 215 205 196 192 199 212 217 222 222 221 210 203 197 217 241 206 234 276 288 292 279 265 247 238 231 226 223 224 230 224 216 221 221 224 225 224 228 225 232 232 222 192 201 206 208 210 213 221 225 232 229 210 210 214 217 216 214 203 200 194 183 186 189 189 190 188 186 186 183 184 176 176 176 172
81 69 199 201 177 189 202 180 209 169 196 192 199 178 197 197 195 199 216 214 221 207 197 178 214 240 226 215 253 248 250 276 273 264 244 233 228 227 222 228 221 221 218 216 221 222 230 221 230 231 226 229 215 199 205 211 212 211 213 221 224 227 226 212 214 216 221 214 210 202 195 186 185 189 191 194 196 194 191 188 187 183 181 182 182
95 90 92 115 105 175 167 189 190 146 151 146 147 152 193 212 198 206 197 210 231 196 187 208 195 209 216 236 226 238 218 235 257 285 275 255 240 219 227 225 231 231 217 226 231 230 230 227 222 223 233 236 237 219 213 208 210 195 209 216 222 224 227 226 214 218 226 218 212 206 193 187 187 189 192 194 196 198 197 192 191 188 185 185 187
92 112 105 100 114 120 110 160 130 133 144 132 127 123 171 181 247 222 201 201 218 178 185 192 219 191 212 220 220 267 204 229 247 241 271 260 244 253 236 221 220 217 223 228 226 230 229 236 233 223 233 240 239 236 225 223 185 188 198 209 216 221 226 229 226 220 231 225 216 210 189 189 189 192 194 195 198 195 202 201 195 192 189 188 190
82 67 89 106 115 93 92 92 86 81 124 125 106 100 94 62 126 168 201 230 200 168 180 187 203 223 302 190 187 217 224 131 286 265 234 269 259 233 233 257 244 234 224 229 231 229 232 229 234 244 234 235 239 239 241 236 197 201 194 202 210 216 220 227 229 230 229 232 222 219 194 191 190 193 196 197 201 199 200 203 204 198 195 192 191
84 85 84 99 108 124 118 111 95 90 80 86 91 96 114 132 94 93 138 201 227 177 155 153 142 225 308 294 353 321 310 8 300 254 230 227 280 324 279 229 248 243 242 247 232 226 225 225 224 228 234 237 238 241 240 242 239 229 227 193 203 212 218 222 226 231 233 229 232 229 212 192 193 193 197 198 201 200 200 204 202 206 202 198 195
88 87 89 90 101 106 109 99 104 95 78 68 69 64 64 52 46 86 74 55 357 230 157 151 146 120 112 36 331 273 280 272 278 310 288 319 329 321 327 311 357 266 238 226 233 215 225 236 223 223 219 226 234 241 241 237 237 245 251 200 191 204 213 218 225 230 232 236 236 231 235 210 198 194 197 201 199 199 200 203 202 206 206 202 200
104 99 102 103 99 102 105 99 106 108 112 100 98 93 93 80 58 50 33 27 31 26 38 34 327 92 65 45 16 17 296 270 271 296 297 307 273 211 277 345 315 310 306 305 280 224 194 241 229 219 224 225 219 227 235 237 231 222 220 198 176 201 210 217 220 228 237 240 240 238 233 234 214 203 198 201 202 199 202 202 202 205 206 205 202
95 102 104 105 105 97 93 91 85 96 104 104 94 90 81 76 82 67 59 59 50 36 13 35 18 31 339 4 300 285 255 223 213 228 280 276 271 256 226 203 266 258 239 259 284 286 259 246 259 269 235 217 231 230 233 238 236 229 235 174 189 192 202 212 217 223 229 238 246 246 238 233 228 215 205 202 205 205 203 199 204 205 205 206 203
115 113 113 107 103 104 99 94 88 74 72 82 94 93 93 92 81 79 82 89 75 54 52 61 59 49 329 324 292 323 302 249 222 302 264 230 274 284 279 272 263 229 203 258 248 248 248 243 245 251 253 241 231 232 233 234 230 229 205 149 183 199 207 209 213 217 221 228 233 242 244 242 238 219 213 213 212 211 208 204 206 205 206 206 205
127 125 119 117 112 104 104 104 98 96 96 100 95 98 99 98 90 86 82 79 83 84 81 67 66 79 19 17 20 359 340 332 332 324 319 301 289 278 278 271 267 262 247 244 256 255 251 237 242 247 251 248 249 243 230 231 237 243 71 133 174 199 206 213 217 219 222 226 231 238 242 238 240 239 222 213 215 212 211 211 210 209 207 207 206
143 137 136 129 125 119 117 115 109 106 101 97 103 104 105 102 102 99 95 90 91 93 89 89 83 85 61 38 30 1 349 324 358 308 294 298 296 291 287 289 286 283 289 264 263 274 267 259 242 232 226 248 242 237 247 246 229 119 208 191 204 207 216 216 219 222 223 226 230 237 243 243 236 233 236 222 218 217 213 213 212 211 210 210 209
157 154 148 148 137 138 137 126 119 111 106 103 95 95 97 95 97 99 92 86 80 82 84 73 58 39 82 71 352 357 8 1 306 311 308 302 286 284 285 310 299 297 285 274 256 242 255 257 252 243 234 212 222 221 232 225 266 134 216 248 199 227 227 231 227 225 224 223 229 233 239 245 242 237 234 233 224 219 215 214 213 211 208 209 211
165 164 158 161 152 141 136 127 121 122 118 110 110 109 109 108 106 97 96 91 92 94 93 91 86 80 31 59 31 45 354 319 312 288 296 299 300 306 309 301 297 286 288 279 271 267 230 235 234 259 263 256 278 300 222 270 265 132 194 282 233 212 231 237 234 233 228 227 226 230 236 239 242 241 238 236 229 220 218 210 212 204 202 204 203
170 164 162 164 146 142 138 136 135 130 126 120 115 111 104 100 98 97 90 92 95 83 82 85 87 79 55 6 141 186 313 287 284 289 287 288 288 299 303 305 298 285 287 290 297 280 280 271 283 268 260 288 272 273 314 302 65 106 206 253 271 226 214 226 241 235 234 233 231 232 235 239 241 242 241 240 238 220 209 211 203 204 199 200 200
169 161 169 165 158 150 151 146 145 144 139 137 133 121 119 113 105 102 100 100 102 104 106 96 72 56 37 358 277 44 311 330 280 303 297 304 287 273 268 277 296 300 301 297 294 291 319 306 296 291 295 283 318 323 313 284 272 36 231 271 274 253 198 222 237 250 255 250 244 239 235 236 239 241 242 240 237 235 216 204 198 200 200 200 200
166 165 172 171 167 165 160 155 156 154 150 146 138 133 136 124 112 112 106 101 89 78 62 68 82 51 52 357 339 351 20 329 305 307 297 286 283 288 280 276 279 280 289 292 289 293 295 333 315 348 324 309 291 322 309 299 25 10 311 290 292 290 209 210 220 235 248 255 257 252 245 240 238 237 236 235 235 233 226 212 202 202 201 199 200
169 169 174 174 173 174 168 166 162 161 158 155 151 146 146 134 131 127 114 119 120 108 98 85 66 69 44 15 343 354 19 310 346 311 296 296 284 279 276 269 261 268 279 282 284 286 284 283 262 270 286 322 337 297 294 292 318 319 296 298 296 286 88 214 217 234 240 249 256 258 253 246 240 235 230 229 229 228 227 221 212 204 201 201 200
173 172 176 178 179 179 178 173 168 167 166 162 160 160 155 140 146 135 140 141 122 119 101 94 85 80 59 64 343 14 344 295 281 250 258 261 270 267 264 269 269 267 274 275 278 263 267 285 291 299 304 304 300 299 290 286 290 295 290 284 278 290 316 292 252 225 226 232 241 245 251 251 245 237 231 227 223 223 227 225 216 208 200 201 200
180 178 183 183 182 183 182 179 176 174 172 170 176 163 166 154 156 143 136 147 139 138 129 120 113 107 131 198 36 339 349 305 263 296 281 258 281 285 277 270 267 260 267 272 272 278 287 292 295 290 285 287 293 287 284 282 271 250 278 278 283 293 276 266 231 219 214 222 228 238 244 248 251 247 233 219 216 220 223 224 218 212 206 202 200
185 184 189 188 188 188 186 184 183 180 176 177 177 174 174 161 150 139 148 151 151 136 143 149 144 127 30 341 266 246 273 291 308 294 276 298 276 268 274 279 273 268 266 272 278 284 284 283 285 288 296 299 285 284 288 289 289 284 279 280 284 285 283 274 271 195 201 205 219 228 240 247 248 247 233 216 217 222 221 224 221 211 208 206 200
190 190 193 191 193 192 192 190 188 186 184 180 179 183 178 163 152 153 157 155 148 136 147 142 143 162 176 296 323 325 302 300 288 287 291 286 284 274 262 265 279 282 274 283 285 288 291 293 287 291 295 292 288 289 294 296 290 286 281 279 275 273 268 271 266 254 182 193 202 214 237 248 251 248 237 227 222 221 220 223 224 216 212 211 204
193 194 196 194 195 195 194 194 192 190 189 182 180 184 178 177 171 163 164 158 156 155 159 155 176 128 194 209 213 175 228 267 277 275 282 271 282 293 289 287 288 288 287 281 288 288 292 292 293 289 285 288 288 293 290 287 291 294 289 281 278 272 274 271 271 271 167 188 181 204 229 236 245 243 234 233 228 219 218 220 223 221 216 211 212
197 196 198 198 196 197 196 196 194 189 188 181 182 186 183 182 176 170 168 166 166 167 168 197 279 266 282 260 213 228 248 265 278 294 280 282 275 283 289 277 266 266 271 279 273 280 287 288 290 289 293 294 285 279 280 281 279 276 279 285 277 272 271 265 262 267 143 176 177 205 216 229 234 235 233 232 229 220 218 219 221 220 219 215 214
202 197 199 200 199 198 197 197 193 188 188 184 185 185 179 178 175 169 175 167 170 178 190 211 208 256 276 280 293 299 279 277 273 271 300 301 294 291 289 289 284 283 276 267 273 276 281 282 286 285 286 281 281 283 283 283 282 279 278 277 282 287 283 283 286 279 242 179 184 206 211 220 227 228 231 231 229 224 218 217 217 219 218 219 217
205 202 201 199 203 202 200 198 193 189 188 186 187 184 176 170 169 172 171 173 177 191 193 224 231 234 259 283 287 285 296 285 286 288 285 286 289 284 284 287 292 297 292 289 281 274 273 275 277 281 274 276 280 277 283 282 282 286 286 286 282 275 272 270 268 265 274 274 258 210 203 217 218 223 222 227 230 225 222 219 218 218 218 218 219
207 199 190 195 197 206 204 199 194 190 188 186 185 179 171 170 171 170 173 177 186 181 201 203 201 219 256 275 284 282 279 289 289 285 284 284 276 278 275 275 275 276 277 279 282 284 283 283 281 277 279 273 268 276 274 278 281 279 282 284 279 274 270 274 271 266 253 249 229 222 251 276 248 199 205 219 223 226 224 222 224 222 222 220 220
210 199 197 201 203 204 204 197 191 188 185 185 181 171 173 170 169 171 169 179 179 170 170 182 163 200 209 242 266 288 292 298 318 309 305 289 292 285 280 279 278 277 275 275 273 275 277 278 279 284 283 286 283 274 274 268 271 274 270 286 297 303 298 295 289 286 280 273 276 255 207 214 224 222 208 213 218 219 219 222 226 228 225 223 220
206 207 210 209 206 202 197 189 184 179 180 176 173 173 169 169 170 167 167 166 167 166 173 163 173 193 236 235 256 303 7 346 331 302 293 301 291 279 277 278 275 273 271 269 270 270 270 270 273 275 277 279 282 285 281 277 275 286 303 303 289 287 285 282 279 274 275 276 275 267 266 238 248 232 208 212 210 204 210 213 220 217 225 224 221
216 219 223 217 208 197 186 180 176 169 169 175 109 120 139 168 168 157 159 166 169 166 178 182 192 219 264 276 255 153 225 232 240 239 240 246 249 262 279 284 278 275 271 272 271 269 271 272 272 275 276 272 276 281 285 288 292 289 282 275 271 277 281 279 275 267 259 261 262 262 259 256 252 251 256 258 209 166 208 186 210 219 206 214 216
229 218 212 204 191 196 190 177 169 166 161 127 121 114 100 85 153 156 161 155 163 190 196 203 256 255 270 292 304 200 207 219 221 217 232 238 234 240 248 256 269 276 279 274 271 270 271 274 273 270 268 270 268 270 275 284 286 285 284 285 281 278 276 279 280 281 283 282 278 278 275 269 260 256 251 249 236 212 235 260 176 192 210 200 212
224 210 207 203 203 199 188 177 167 161 144 128 129 128 127 130 94 147 158 168 185 211 205 236 243 268 282 289 286 293 281 295 310 288 235 214 220 229 231 239 243 249 254 263 270 270 267 269 269 266 267 266 268 266 267 269 277 283 283 284 282 279 275 272 271 273 281 317 292 278 272 277 279 266 257 252 252 244 230 118 125 177 192 197 203
229 225 215 203 198 186 180 169 161 147 132 138 133 135 134 130 131 216 178 171 221 207 232 248 265 278 285 288 283 280 290 182 243 269 292 290 219 207 221 226 232 235 240 238 243 255 271 271 271 270 265 271 271 266 267 270 273 276 277 274 276 278 274 269 271 277 273 281 280 274 272 269 269 262 256 247 246 247 184 156 176 165 195 210 208
229 229 222 207 195 185 175 168 159 145 139 146 144 147 146 149 157 218 182 178 232 242 240 250 253 265 269 279 286 284 285 287 292 284 300 298 300 289 269 268 270 237 221 227 234 236 238 251 258 263 266 267 269 273 274 274 269 268 271 270 275 276 275 274 281 279 278 280 273 281 275 266 265 268 263 260 249 237 221 134 157 167 188 213 224
226 224 220 210 197 178 170 166 153 141 140 152 152 150 148 154 163 217 195 189 232 234 235 242 249 254 259 256 265 279 286 291 294 306 295 296 296 290 281 277 271 272 277 266 241 230 227 227 242 253 264 267 268 270 270 269 266 266 270 276 275 273 278 286 281 274 274 268 269 264 262 262 252 255 257 258 252 249 177 122 135 147 168 211 235
211 216 209 195 178 174 167 151 140 139 145 157 153 153 151 155 165 204 200 212 237 245 252 255 253 258 258 263 270 279 290 291 305 153 235 291 293 287 284 279 276 275 273 267 260 276 285 290 281 277 280 293 310 306 307 307 309 308 294 271 262 259 265 266 262 256 252 248 241 246 253 256 249 252 259 255 252 252 210 118 111 107 111 220 243
201 197 191 182 171 160 144 136 127 128 139 161 153 153 155 157 173 216 216 237 251 250 256 263 262 262 262 263 270 287 290 286 319 66 142 265 291 286 285 283 281 281 276 277 252 224 224 241 260 274 280 283 284 287 285 283 283 289 286 275 263 266 265 265 268 266 259 250 236 231 247 256 244 247 252 247 249 249 245 189 131 83 53 14 269
200 192 179 163 153 134 125 125 135 141 152 160 162 160 161 168 198 233 256 266 268 271 273 270 271 270 270 224 248 269 275 279 323 101 86 284 287 289 289 290 288 283 282 280 276 266 227 216 227 239 251 263 271 273 276 275 270 258 260 254 256 262 261 261 265 264 268 258 245 235 248 248 249 243 250 252 247 219 211 221 75 101 109 172 188
189 168 161 150 124 119 123 128 132 139 148 162 169 168 172 177 206 244 274 280 280 276 280 280 276 280 283 258 210 225 256 275 288 266 247 255 278 290 293 291 287 282 282 284 282 281 279 275 265 251 243 235 239 247 249 245 247 252 254 254 255 253 256 256 258 264 263 254 246 237 244 246 245 238 241 243 243 229 210 206 114 228 224 226 186